Regional Weather Roundup
Issued by NWS Jackson, KY

Home | Current Version | Previous Version | Graphics & Text | Print | Product List | Glossary On
Versions: 1 2 3 4 5 6 7 8 9 10 11 12 13 14 15 16 17 18 19 20 21 22 23 24 25 26 27 28 29 30 31 32 33 34 35 36 37 38 39 40 41 42 43 44 45 46 47 48 49
000
ASUS43 KJKL 240710
RWRJKL

EAST KENTUCKY HOURLY WEATHER ROUNDUP
NATIONAL WEATHER SERVICE JACKSON KY
300 AM EDT TUE MAY 24 2016

NOTE: "FAIR" INDICATES FEW OR NO CLOUDS BELOW 12,000 FEET WITH
NO SIGNIFICANT WEATHER AND/OR OBSTRUCTIONS TO VISIBILITY.

* THESE REPORTS ARE NOT UNDER NWS QUALITY CONTROL AND MAY NOT
  REPORT WEATHER SUCH AS PRECIPITATION AND FOG.

KYZ079-080-083-085-087-088-110-112-115-119-120-240800
...EASTERN KENTUCKY...

CITY           SKY/WX    TMP DP  RH WIND       PRES   REMARKS
JACKSON        CLEAR     58  48  69 CALM      30.06S
LONDON         CLEAR     51  49  92 CALM      30.05F
SOMERSET*      CLEAR     50  50 100 CALM      30.06S
MONTICELLO*    CLEAR     50  49  96 W12       30.06S
WILLIAMSBURG*  SUNNY     54  54 100 SE6       30.06S
MIDDLESBORO*   CLEAR     50  50  99 CALM      30.09S
HARLAN APT*      N/A     50  48  93 CALM      30.08F
HAZARD APT*    SUNNY     52  52 100 CALM      30.07S
BLACK MTN*       N/A     52  46  82 S2          N/A
PIKE CO APT*     N/A     55  53  92 S6        30.06S
BIG SANDY APT* SUNNY     55  53  95 CALM      30.06S
MOREHEAD APT*  SUNNY     54  50  87 SE5       30.06F
ASHLAND*       CLEAR     54  52  94 CALM      30.02S
$$

KYZ035-036-041-042-044-050-067-078-099-240800
...CENTRAL KENTUCKY...

CITY           SKY/WX    TMP DP  RH WIND       PRES   REMARKS
MT STERLING*     N/A     50  50 100 CALM      30.06S FOG
FLEMING/MASON* CLEAR     57  51  79 S5        30.05S
DANVILLE*      CLEAR     52  50  93 CALM      30.05S
RICHMOND*      CLEAR     52  48  87 CALM      30.05S
LEXINGTON      CLEAR     54  50  86 SE3       30.04F
FRANKFORT      CLEAR     52  49  89 CALM      30.02F
LOUISVILLE     PTCLDY    62  50  64 E5        30.00F
LEBANON*         N/A     55  50  82 CALM      30.03F
GLASGOW*       CLEAR     50  49  95 CALM      30.01F
BOWLING GREEN  CLEAR     56  51  84 CALM      30.02S
$$

KYZ091>093-OHZ055-061-077-WVZ005-015-034-035-042-240800
...SOUTHERN OHIO/WEST VIRGINIA...

CITY           SKY/WX    TMP DP  RH WIND       PRES   REMARKS
COVINGTON      CLEAR     54  52  93 S3        30.03S
COLUMBUS       CLEAR     54  51  90 CALM      30.02S
DAYTON         CLEAR     59  47  64 SW6       30.04S
WILMINGTON     CLEAR     54  51  90 SW3       30.03F
HUNTINGTON       N/A     53  51  93 E3        30.03F
CHARLESTON       N/A     53  52  96 CALM      30.04F
PINEVILLE*     FOG       52  49  91 MISG      30.13S VSB 1/4
BECKLEY          N/A     50  47  89 S5        30.09S
BLUEFIELD        N/A     52  46  80 CALM      30.10F
LOGAN CO APT*    N/A     54  52  94 CALM      30.06S
$$

VAZ002-007-008-TNZ017-027-036-066-071-240800
...SOUTHWEST VIRGINIA/EAST TENNESSEE...

CITY           SKY/WX    TMP DP  RH WIND       PRES   REMARKS
WISE*            N/A     52  43  71 CALM      30.11S
JONESVILLE*      N/A     48  48 100 CALM      30.10S
ABINGDON*        N/A     53  49  88 CALM      30.09S
BRISTOL        CLEAR     50  48  93 NE3       30.09R
SEVIERVILLE*   SUNNY     52  48  87 CALM      30.06R
KNOXVILLE      CLEAR     58  50  75 CALM      30.04S
OAK RIDGE      CLEAR     55  50  83 CALM      30.07R
CROSSVILLE     CLEAR     51  46  83 CALM      30.07F
NASHVILLE      CLEAR     59  52  77 CALM      30.02S
$$

...KEY TO REMARKS...
VSB - VISIBILITY IN MILES
WCI - WIND CHILL INDEX
HX  - HEAT INDEX

$$



USA.gov is the U.S. government's official web portal to all federal, state and local government web resources and services.